weather.gov     
National Weather Service

Weather Roundup
NWS Homepage
This page is being discontinued on March 12, 2014.
The same data is available at this site. Please update your bookmarks.
Thank you, and we apologize for the inconvenience.
Please send an email to SR-SRH.Webmaster@noaa.gov with any concerns.


Current Version
Previous Version:    01  02  03  04  05  06  07  08  09  10  11  12  13  14  15  16  17  18  19  20  21  22  23  24  25  26  27  28  29  30  
   31  32  33  34  35  36  37  38  39  40  41  42  43  44  45  46  47  48  49  50  51  52  53  54  55  56  57  58  59  60  
[Printable]
898
ASUS44 KCRP 231710
HRRCRP

SOUTH TEXAS REGIONAL WEATHER ROUNDUP
NATIONAL WEATHER SERVICE CORPUS CHRISTI TX
1200 PM CDT WED APR 23 2014


TXZ229>244-231800-
...CORPUS CHRISTI AREA OBSERVATIONS...

CITY           SKY/WX    TMP DP  RH WIND       PRES   REMARKS
CORPUS CHRISTI MOSUNNY   84  66  54 S13       29.92F
NAS CORPUS CHR MOSUNNY   80  67  64 SE18      29.93F
ROCKPORT       CLOUDY    77  68  73 SE10G20   29.93F
KINGSVILLE NAS PTSUNNY   85  70  60 SE16      29.90F
ALICE          PTSUNNY   81  67  62 S14       29.91F
FALFURRIAS     CLOUDY    81  66  61 SE12      29.90F
$$

...VICTORIA AREA OBSERVATIONS...

CITY           SKY/WX    TMP DP  RH WIND       PRES   REMARKS
VICTORIA       CLOUDY    79  67  66 S12       29.94F
BEEVILLE       FAIR      85  64  49 S13G22    29.92F
PLEASANTON     SUNNY     81  64  56 S12G18    29.92S
SAN ANTONIO    MOSUNNY   84  64  50 SE15      29.91F
$$

...LAREDO AREA OBSERVATIONS...

CITY           SKY/WX    TMP DP  RH WIND       PRES   REMARKS
LAREDO         PTSUNNY   81  67  62 S10       29.92F
COTULLA        SUNNY     84  63  49 SE17G24   29.89F
DEL RIO        SUNNY     84  65  52 SE17G26   29.84F
MCALLEN        CLOUDY    79  69  71 SE13      29.90F
HEBBRONVILLE   CLOUDY    76  67  71 SE10      29.91F
$$

...OTHER TEXAS OBSERVATIONS...

CITY           SKY/WX    TMP DP  RH WIND       PRES   REMARKS
BROWNSVILLE    MOSUNNY   83  66  56 S17       29.91F
HOUSTON        PTSUNNY   77  66  68 S10G20    29.97S
COL. STATION   SUNNY     78  66  66 S9G18     29.95F
AUSTIN         MOSUNNY   81  65  58 S12       29.91F
WACO           SUNNY     82  63  52 S16       29.91F
FORT WORTH     MOSUNNY   81  62  52 S14       29.90F
WICHITA FALLS  MOSUNNY   80  59  48 S15G28    29.84F
LUBBOCK        CLOUDY    77  54  44 S24G32    29.82F
EL PASO        MOSUNNY   76  25  15 W18G24    29.90F
$$

...MARINE OBSERVATIONS...

STATION/POSITION TIME  SKY/WX   TEMP    WIND        PRES    VSBY  WAVE   SWELL
                                AIR SEA DIR/SP/G                  HT/PER HT/PER
                 (UTC)          (F)     (DEG/KT/KT) (MB)    (MI)  (FT/S) (FT/S)
PORT ARANSAS     1700            72 74  130/ 11/ 12 1013.9F
BUOY 90 E PORT A NOT AVBL
BUOY 45 SE BAFFI 1700            72 71  110/ 10/ 12 1013.6F         1/ 5
BUOY 200 E PT IS NOT AVBL
BUOY 15 E GALVES 1700            71 72  120/  8/  8 1015.2F         1/ 5
$$




U.S. Dept. of Commerce
NOAA National Weather Service
1325 East West Highway
Silver Spring, MD 20910
E-mail: w-nws.webmaster@noaa.gov
Page last modified: May 16, 2007
NATIONAL WEATHER SERVICE: for Safety, for Work, for Fun - FOR LIFE